FW4383 Weather Reports


Display with metric or nautical units.
time (UTC)temp
F
wind
direction
speed
MPH
gust
MPH
rain 1hr
in
rain 24hr
in
rain mn
in
humidity
%
barometer
mb
20260904050030 53 135 0.0 1.0 0.00 0.01 0.01 88 1013.3
20260904044604 54 101 0.0 2.0 0.00 0.01 0.01 87 1013.3
20260904043032 54 352 0.0 0.0 0.00 0.01 0.01 85 1013.2
20260904041531 55 337 0.0 0.0 0.00 0.01 0.01 83 1013.2
20260904034532 55 223 0.0 6.0 0.00 0.01 0.01 82 1013.2
20260904033034 55 220 1.0 5.0 0.00 0.01 0.01 83 1013.0
20260904031535 57 247 0.0 0.0 0.00 0.01 0.01 81 1012.8
20260904030030 57 265 1.0 7.0 0.00 0.01 0.01 80 1012.8
20260904024535 58 287 1.0 4.0 0.00 0.01 0.01 80 1012.7
20260904023030 58 280 2.0 6.0 0.00 0.03 0.01 79 1012.5
20260904021534 58 306 1.0 5.0 0.00 0.04 0.01 78 1012.5
20260904020035 58 279 2.0 6.0 0.00 0.06 0.01 77 1012.5
20260904014534 59 289 3.0 9.0 0.00 0.16 0.01 76 1012.4
20260904013033 60 273 4.0 10.0 0.00 0.16 0.01 73 1012.4
20260904011535 61 271 4.0 8.0 0.00 0.16 0.01 71 1012.4
20260904010035 63 297 3.0 6.0 0.00 0.17 0.01 68 1012.3
20260904001534 60 337 1.0 6.0 0.00 0.19 0.01 77 1012.3
20260904000037 59 286 3.0 8.0 0.00 0.20 0.01 79 1012.3
20260903230034 61 272 8.0 17.0 0.00 0.22 0.01 69 1012.5
20260903224533 61 275 8.0 18.0 0.00 0.22 0.01 69 1012.5
20260903223034 61 281 8.0 18.0 0.00 0.22 0.01 70 1012.5
20260903221534 61 281 7.0 14.0 0.00 0.23 0.01 70 1012.5
20260903220034 63 284 8.0 17.0 0.00 0.23 0.01 64 1012.4
20260903214532 67 279 10.0 20.0 0.00 0.24 0.01 59 1012.2
20260903213038 68 294 5.0 12.0 0.00 0.25 0.01 58 1012.1
20260903211536 68 262 3.0 7.0 0.00 0.26 0.01 56 1012.2
20260903210036 67 292 3.0 6.0 0.00 0.26 0.01 60 1012.2
20260903204644 66 275 2.0 6.0 0.00 0.27 0.01 60 1012.3
20260903203052 67 283 2.0 5.0 0.00 0.27 0.01 61 1012.4
20260903201534 67 15 2.0 5.0 0.00 0.28 0.01 65 1012.6
20260903200036 65 1 1.0 7.0 0.00 0.28 0.01 66 1012.7
20260903193036 65 38 2.0 6.0 0.00 0.28 0.01 72 1013.2
20260903191536 63 11 1.0 4.0 0.00 0.28 0.01 76 1013.4
20260903190035 62 58 0.0 3.0 0.00 0.28 0.01 78 1013.7
20260903184543 62 32 1.0 5.0 0.00 0.28 0.01 79 1013.7
20260903183035 62 50 1.0 5.0 0.00 0.28 0.01 83 1013.8
20260903180037 58 56 1.0 6.0 0.00 0.28 0.01 92 1013.9
20260903174641 56 22 1.0 4.0 0.00 0.28 0.01 95 1014.0
20260903173113 54 334 0.0 3.0 0.00 0.28 0.01 96 1014.1
20260903171536 53 302 0.0 2.0 0.00 0.28 0.01 97 1014.2
20260903164535 52 153 1.0 6.0 0.00 0.28 0.01 98 1014.2
20260903163036 52 135 1.0 4.0 0.00 0.28 0.01 98 1014.1
20260903161532 51 199 0.0 2.0 0.00 0.28 0.01 98 1014.2
20260903160037 51 247 0.0 4.0 0.00 0.28 0.01 98 1014.2
20260903154531 50 154 0.0 3.0 0.00 0.28 0.01 98 1014.2
20260903153142 50 145 0.0 4.0 0.00 0.28 0.01 98 1014.2
20260903151534 49 157 0.0 1.0 0.00 0.28 0.01 98 1014.3
20260903150035 49 157 0.0 0.0 0.00 0.28 0.01 98 1014.1
20260903144535 48 157 0.0 2.0 0.00 0.28 0.01 98 1014.0
20260903143035 48 157 1.0 4.0 0.00 0.28 0.01 98 1013.9
20260903141534 48 157 0.0 2.0 0.00 0.28 0.01 98 1013.8
20260903140037 48 157 0.0 2.0 0.00 0.28 0.01 98 1013.7
20260903133035 47 157 0.0 3.0 0.00 0.28 0.01 97 1013.5
20260903131535 47 157 1.0 3.0 0.00 0.28 0.01 97 1013.4
20260903130035 47 157 0.0 2.0 0.00 0.28 0.01 97 1013.3
20260903124534 47 157 0.0 1.0 0.00 0.28 0.01 97 1013.4
20260903123053 47 157 0.0 1.0 0.00 0.28 0.01 97 1013.5
20260903121534 48 157 0.0 0.0 0.00 0.28 0.01 97 1013.5
20260903120035 48 157 0.0 1.0 0.00 0.28 0.01 97 1013.4
20260903113035 49 157 1.0 4.0 0.00 0.28 0.01 97 1013.4
20260903111531 50 157 0.0 2.0 0.00 0.28 0.01 97 1013.2
20260903110033 50 157 0.0 3.0 0.00 0.28 0.01 97 1013.2
20260903104534 51 151 2.0 4.0 0.01 0.28 0.01 97 1013.0
20260903103031 51 112 0.0 2.0 0.01 0.28 0.01 97 1012.8
20260903101534 51 112 0.0 0.0 0.01 0.28 0.01 97 1012.9
20260903100153 51 112 0.0 2.0 0.01 0.28 0.00 97 1012.9
20260903094535 51 112 0.0 2.0 0.00 0.27 0.00 97 1012.9
20260903093035 51 112 0.0 3.0 0.00 0.27 0.00 97 1012.8
20260903091653 51 112 0.0 5.0 0.00 0.27 0.00 97 1012.8
20260903090143 51 112 0.0 0.0 0.00 0.27 0.00 97 1012.8
20260903084534 52 112 0.0 3.0 0.00 0.27 0.00 97 1012.9
20260903083033 52 112 0.0 3.0 0.00 0.27 0.00 97 1012.8
20260903081536 52 112 2.0 5.0 0.00 0.27 0.00 97 1012.7
20260903080035 52 115 3.0 7.0 0.00 0.27 0.00 96 1012.6
20260903074532 51 107 3.0 6.0 0.00 0.27 0.00 96 1012.5
20260903073035 52 159 0.0 4.0 0.00 0.27 0.00 96 1012.2
20260903071534 52 188 0.0 4.0 0.00 0.27 0.00 96 1012.2
20260903070035 53 197 1.0 4.0 0.00 0.27 0.00 96 1012.3
20260903064536 53 218 0.0 3.0 0.00 0.27 0.27 96 1012.3
20260903063034 53 143 1.0 4.0 0.00 0.27 0.27 95 1012.3
20260903061536 53 112 2.0 4.0 0.00 0.27 0.27 95 1012.4
20260903060035 53 156 0.0 3.0 0.00 0.27 0.27 95 1012.4
20260903054605 54 200 0.0 3.0 0.00 0.27 0.27 95 1012.2
20260903053143 54 177 0.0 4.0 0.00 0.27 0.27 94 1012.1
20260903051537 54 157 0.0 1.0 0.00 0.27 0.27 93 1012.2